Millville, NJ

11:46 AM EDT on March 29, 2017 (GMT -0400)
Millville Municipal

Weather History for KMIV - June, 2012

Change the Weather History Date:

Monday, June 25, 2012

  Actual Average Record
Temperature  
Mean Temperature 76 °F -  
Max Temperature 82 °F 83 °F 98 °F (1997)
Min Temperature 68 °F 62 °F 50 °F (1979)
Cooling Degree Days 11    
Growing Degree Days 26 (Base 50)    
Moisture  
Dew Point 63 °F    
Average Humidity 66    
Maximum Humidity 90    
Minimum Humidity 38    
Precipitation  
Precipitation 0.00 in - - ()
Sea Level Pressure  
Sea Level Pressure 29.74 in    
Wind  
Wind Speed 6 mph (WNW)    
Max Wind Speed 15 mph    
Max Gust Speed 21 mph    
Visibility 10 miles    
Events Thunderstorm    
Averages and records for this station are not official NWS values.
T = Trace of Precipitation, MM = Missing Value Source: NWS Daily Summary

Daily Weather History Graph

Daily Weather History Graph

Search for Another Location

Airport or City:

Trip Planner

Search our weather history database for the weather conditions in past years. The results will help you decide how hot, cold, wet, or windy it might be!

Date:

Astronomy

Jun. 25, 2012 Rise Set
Actual Time 5:34 AM EDT 8:31 PM EDT
Civil Twilight 5:02 AM EDT 9:03 PM EDT
Nautical Twilight 4:21 AM EDT 9:44 PM EDT
Astronomical Twilight 3:34 AM EDT 10:31 PM EDT
Moon 11:40 AM EDT (6/25) No Moon Set
Length of Visible Light 16h 01m
Length of Day
14h 56m
Waxing Crescent, 34% of the Moon is Illuminated
Jun 25
Waxing Crescent
Jun 26
First Quarter
Jul 3
Full
Jul 10
Last Quarter
Jul 19
New

Hourly Weather History & Observations

Time (EDT) Temp. Heat Index Dew Point Humidity Pressure Visibility Wind Dir Wind Speed Gust Speed Precip Events Conditions
12:54 AM 73.0 °F - 66.9 °F 81% 29.87 in 10.0 mi Variable 3.5 mph - 0.00 in Thunderstorm Thunderstorm
1:10 AM 71.6 °F - 66.2 °F 83% 29.88 in 10.0 mi SSW 4.6 mph - N/A   Clear
1:54 AM 72.0 °F - 66.9 °F 84% 29.85 in 10.0 mi Calm Calm - N/A   Scattered Clouds
2:54 AM 71.1 °F - 68.0 °F 90% 29.83 in 8.0 mi Calm Calm - N/A   Mostly Cloudy
3:54 AM 70.0 °F - 66.9 °F 90% 29.81 in 8.0 mi Calm Calm - N/A   Clear
4:54 AM 71.1 °F - 68.0 °F 90% 29.80 in 9.0 mi SSE 3.5 mph - N/A   Mostly Cloudy
5:54 AM 71.1 °F - 68.0 °F 90% 29.80 in 7.0 mi Calm Calm - N/A   Mostly Cloudy
6:54 AM 73.0 °F - 69.1 °F 87% 29.77 in 8.0 mi Calm Calm - N/A   Clear
7:54 AM 75.9 °F - 69.1 °F 79% 29.76 in 10.0 mi Variable 6.9 mph - N/A   Mostly Cloudy
8:52 AM 77.0 °F - 69.8 °F 78% 29.75 in 10.0 mi SW 9.2 mph 16.1 mph N/A Thunderstorm Thunderstorm
8:54 AM 77.0 °F - 69.1 °F 76% 29.75 in 10.0 mi SW 8.1 mph 16.1 mph N/A Thunderstorm Thunderstorm
9:11 AM 75.2 °F - 69.8 °F 83% 29.75 in 10.0 mi WSW 8.1 mph - N/A   Mostly Cloudy
9:54 AM 79.0 °F - 69.1 °F 72% 29.73 in 10.0 mi West 12.7 mph - N/A   Mostly Cloudy
10:04 AM 80.6 °F 83.9 °F 69.8 °F 70% 29.72 in 10.0 mi WSW 13.8 mph 20.7 mph N/A   Scattered Clouds
10:15 AM 78.8 °F - 69.8 °F 74% 29.72 in 10.0 mi West 15.0 mph 20.7 mph N/A   Mostly Cloudy
10:43 AM 80.6 °F 83.9 °F 69.8 °F 70% 29.72 in 10.0 mi West 12.7 mph - N/A   Mostly Cloudy
10:54 AM 81.0 °F 84.1 °F 69.1 °F 67% 29.71 in 10.0 mi West 11.5 mph - N/A   Scattered Clouds
11:54 AM 81.0 °F 83.3 °F 66.9 °F 62% 29.71 in 9.0 mi West 6.9 mph - N/A   Scattered Clouds
12:54 PM 82.0 °F 84.1 °F 66.0 °F 58% 29.70 in 10.0 mi WNW 8.1 mph - N/A   Scattered Clouds
1:54 PM 82.0 °F 83.1 °F 63.0 °F 52% 29.69 in 10.0 mi NNW 8.1 mph 17.3 mph N/A   Scattered Clouds
2:54 PM 82.0 °F 83.0 °F 62.1 °F 51% 29.67 in 10.0 mi NW 9.2 mph 19.6 mph N/A   Scattered Clouds
3:54 PM 80.1 °F 80.6 °F 57.9 °F 47% 29.68 in 10.0 mi NNW 11.5 mph - N/A   Scattered Clouds
4:54 PM 82.0 °F 81.6 °F 55.9 °F 41% 29.68 in 10.0 mi NW 8.1 mph - N/A   Partly Cloudy
5:54 PM 81.0 °F 80.4 °F 53.1 °F 38% 29.65 in 10.0 mi WNW 10.4 mph - N/A   Clear
6:54 PM 79.0 °F - 54.0 °F 42% 29.68 in 10.0 mi NNW 10.4 mph - N/A   Scattered Clouds
7:54 PM 75.9 °F - 53.1 °F 45% 29.70 in 10.0 mi NW 9.2 mph - N/A   Mostly Cloudy
8:54 PM 73.9 °F - 50.0 °F 43% 29.71 in 10.0 mi NNW 13.8 mph 20.7 mph N/A   Mostly Cloudy
9:54 PM 72.0 °F - 48.9 °F 44% 29.73 in 10.0 mi NNW 6.9 mph - N/A   Mostly Cloudy
10:54 PM 71.1 °F - 48.0 °F 44% 29.75 in 10.0 mi North 9.2 mph 18.4 mph N/A   Scattered Clouds
11:54 PM 68.0 °F - 46.9 °F 47% 29.76 in 10.0 mi NNW 10.4 mph - N/A   Clear